TimePST,TemperatureF,Dew PointF,Humidity,Sea Level PressureIn,VisibilityMPH,Wind Direction,Wind SpeedMPH,Gust SpeedMPH,PrecipitationIn,Events,Conditions,WindDirDegrees,DateUTC
12:56 AM,60.1,32.0,35,29.98,10.0,SW,6.9,-,N/A,,Clear,230,2012-11-07 08:56:00
1:56 AM,59.0,33.1,38,29.98,10.0,SSW,6.9,-,N/A,,Clear,200,2012-11-07 09:56:00
2:56 AM,57.0,34.0,42,29.97,10.0,SSW,5.8,-,N/A,,Clear,210,2012-11-07 10:56:00
3:56 AM,57.0,33.1,40,29.97,10.0,SSW,8.1,-,N/A,,Clear,200,2012-11-07 11:56:00
4:56 AM,57.0,33.1,40,29.98,10.0,SSW,9.2,-,N/A,,Clear,210,2012-11-07 12:56:00
5:56 AM,57.0,33.1,40,29.99,10.0,SSW,5.8,-,N/A,,Clear,210,2012-11-07 13:56:00
6:56 AM,57.9,33.1,39,30.00,10.0,SSW,8.1,-,N/A,,Clear,200,2012-11-07 14:56:00
7:56 AM,63.0,33.1,33,30.01,10.0,SSW,8.1,-,N/A,,Clear,200,2012-11-07 15:56:00
8:56 AM,68.0,33.1,27,30.00,10.0,South,6.9,-,N/A,,Clear,190,2012-11-07 16:56:00
9:56 AM,72.0,30.9,22,29.99,10.0,SSE,3.5,-,N/A,,Clear,160,2012-11-07 17:56:00
10:56 AM,73.0,30.0,20,29.96,10.0,South,3.5,-,N/A,,Clear,170,2012-11-07 18:56:00
11:56 AM,75.9,30.9,19,29.92,10.0,Calm,Calm,-,N/A,,Clear,0,2012-11-07 19:56:00
12:56 PM,77.0,30.9,19,29.88,10.0,Calm,Calm,-,N/A,,Clear,0,2012-11-07 20:56:00
1:56 PM,79.0,32.0,18,29.86,10.0,Calm,Calm,-,N/A,,Partly Cloudy,0,2012-11-07 21:56:00
2:56 PM,79.0,32.0,18,29.84,10.0,SSE,4.6,-,N/A,,Partly Cloudy,150,2012-11-07 22:56:00
3:56 PM,79.0,33.1,19,29.83,10.0,Calm,Calm,-,N/A,,Partly Cloudy,0,2012-11-07 23:56:00
4:56 PM,75.9,34.0,22,29.82,10.0,SSW,5.8,-,N/A,,Mostly Cloudy,210,2012-11-08 00:56:00
5:56 PM,73.9,35.1,24,29.82,10.0,South,8.1,-,N/A,,Mostly Cloudy,190,2012-11-08 01:56:00
6:56 PM,71.1,37.0,29,29.82,10.0,SSW,9.2,-,N/A,,Mostly Cloudy,200,2012-11-08 02:56:00
7:56 PM,68.0,37.0,32,29.82,10.0,SSW,11.5,-,N/A,,Scattered Clouds,200,2012-11-08 03:56:00
8:56 PM,66.0,34.0,30,29.81,10.0,SSW,9.2,-,N/A,,Partly Cloudy,200,2012-11-08 04:56:00
9:56 PM,64.9,30.0,27,29.80,10.0,SSW,4.6,-,N/A,,Partly Cloudy,210,2012-11-08 05:56:00
10:56 PM,64.4,30.2,28,29.84,10.0,South,5.8,-,N/A,,Clear,170,2012-11-08 06:56:00
11:56 PM,64.0,27.0,25,29.77,10.0,South,12.7,-,N/A,,Clear,190,2012-11-08 07:56:00